STARLINK-32576

decayed
NORAD ID: 62318 Int'l Des: 2024-239 Owner: SPXS Country: US Constellation: starlink
LEOCIRCULAR

关于 STARLINK-32576

正在加载描述...

高度历史

Altitude vs Time

uPlot chart will show altitude changes over time

两行轨道根数

1 62318U 24239T 25200.44941007 .21308689 11973-4 46790-2 0 9998
2 62318 53.1223 180.5095 0006381 204.5211 296.6335 16.29655350 33900
Epoch: Jul 19, 2025 • Age: 1465 hours

当前状态

Position data unavailable
发射日期 Dec 13, 2024
运行时间 0.7 years
衰减日期 Jul 19, 2025
类型 internet

技术详情

分类 Payload
质量 730.00 kg
干质量 700.00 kg
总质量 730.00 kg
长度 0.30 m
直径 4.10 m
跨度 29.00 m
形状 Box + pan
制造商 SPXS
平台类型 Starlink V2M
阶段状态 Unknown Transfer Status
所有者/国家 SPXS/US

大型星座

Loading constellations...